DELTA 1 DEB, 10715

Orbit data source: Space-Track

DELTA 1 DEB, 10715 is space debris in LEO originally from a launch on Thu, 29 Jul 1976 UTC launched from the Air Force Western Test Range (AFWTR). Debris objects in space refer to the collection of defunct objects orbiting the Earth. Examples of debris include non-operational satellites, rocket bodies, and fragments generated from explosions, collisions, or faulty payload assembly.

Loading next visibility...
Identifier
10715, 1976-077AL
Orbit
LEO
Country
Flag of USUS
Related business
Manufacturer
Unknown
Mission
Spacecraft
Bus & Motor
Unknown
Mass
Unknown
Launch date (UTC)
1976-07-29 (49 years ago)
Launch vehicle
Unknown
Launch site
Air Force Western Test Range (AFWTR)
Object type
Payload
Rocket body
Debris
Shape & HBR
Unknown shape, 0.1 m
Radar Cross Section
Medium (>0.1 m² and <1 m²)

Expand to show TLE details & history
Last TLE update: 14 hours ago

TLE from 14 hours ago
0 DELTA 1 DEB
1 10715U 76077AL  25309.17819546 -.00000190  00000-0 -22728-2 0  9996
2 10715 102.5199  89.7467 0435007 222.8368 315.0631 11.63928466 96127
Epoch: 2025-11-05T04:16Z
TLE epoch observation values (Epoch: 2025-11-05T04:16:36.087Z)
Latitude
5.55112°
Longitude
162.17237°
Altitude
1,603.237 km
Speed
7.173 km/s
True Right ascension
18h 03m 54s
True Declination
5° 31' 18"
Sunlit
Object was in daylight at epoch
Visualization orbit readout
Latitude
Unknown
Longitude
Unknown
Altitude
Unknown
Speed
Unknown
Apparent Right ascension
Unknown
Apparent Declination
Unknown
Sunlit
N/A
Visualization observer readout
Local Sidereal Time
14:05:13
Azimuth
Unknown
Elevation
Unknown
Doppler factor
Unknown
Orbital elements
Apogee altitude
2,201.894 km
Perigee altitude
1,486.538 km
Semi-major axis
8,222.353 km
Eccentricity
0.0435
Inclination
102.5199°
RAAN
89.7467°
Arg. of periapsis
222.8368°
True anomaly
311.40398°
Mean anomaly
315.0631°
Eccentric anomaly
313.24763°
Mean motion
2.91105 °/min
Orbital period
123.67 mins
BSTAR
-0.0022728
Loading maneuver chart data...
Computing Atmospheric mass density...
Loading historical data...
Loading historical data...
Loading historical data...
Loading historical data...
Loading historical data...
Loading historical data...
Loading historical data...

Documentation

Showing up to 5 results
|